Wind_Speed
17 17 17 17 17 18 18 18 17 17 17 17 17 18 19 18 17 16 15 14 14 16 16 16 16 15 14 14 14 14 14 14 14 14 15 15 15 15 14 13 14 15 15 15 15 16 17 16 16 18 21 23 23 22 21 21 22 22 21 24 26 25 23 20 18 19 19 18 17 17 17 17 17 17 17 18 20 20 20 22 24 26 26 25 26 28 29 28
17 17 17 17 17 17 17 17 16 15 15 15 16 17 18 19 19 18 16 15 14 15 16 16 17 16 16 15 14 14 14 15 15 15 15 15 16 15 15 14 14 15 15 15 15 16 17 17 17 18 21 22 23 23 22 21 23 25 24 26 26 24 23 22 20 20 19 18 16 15 16 16 16 16 17 18 19 19 20 21 23 25 26 27 26 27 28 30
17 17 16 16 17 17 17 16 15 14 13 13 14 15 16 17 18 18 18 17 16 16 16 17 17 17 17 16 15 15 15 15 15 15 16 16 17 16 16 15 15 15 15 15 16 16 18 19 19 20 21 23 22 22 24 24 24 25 26 28 27 24 24 23 21 21 20 19 17 16 16 17 17 17 16 17 18 20 21 20 22 23 23 24 25 26 27 29
16 15 15 14 15 16 16 16 15 14 13 13 13 14 15 15 16 16 16 17 17 17 17 17 17 18 18 17 17 16 15 16 16 16 16 17 17 17 16 16 16 16 16 16 16 17 18 19 20 21 22 23 22 21 25 26 25 25 27 28 26 25 24 24 24 23 22 20 19 19 18 17 17 17 16 16 16 19 21 19 21 22 21 21 22 25 25 26
14 13 12 12 13 13 14 14 14 13 13 13 14 14 15 15 15 15 15 15 15 15 16 17 17 18 19 18 17 17 16 15 15 16 16 17 18 18 17 17 18 18 17 17 17 17 18 19 20 22 22 23 23 24 25 25 26 27 28 27 25 24 23 24 24 24 24 22 20 19 18 17 17 16 16 16 16 18 19 19 21 22 21 21 21 22 23 23
13 11 11 11 11 11 11 11 12 12 12 13 14 15 15 15 15 15 15 15 14 13 14 15 16 17 18 18 18 17 16 14 14 14 15 16 17 18 18 18 18 18 18 18 18 18 19 19 20 22 22 23 25 26 24 23 26 28 27 26 25 23 23 24 23 23 24 24 22 20 17 16 16 16 16 16 16 17 18 17 19 21 20 21 22 22 22 23
13 11 11 11 12 12 11 10 11 10 10 11 12 14 15 15 15 15 15 15 14 13 12 13 14 15 17 17 17 17 17 17 16 15 14 15 15 16 16 17 18 18 19 19 19 19 19 19 19 21 22 22 24 26 24 24 26 27 26 26 26 24 24 24 22 23 23 24 24 22 20 18 17 17 17 16 16 16 17 15 15 18 18 18 20 22 24 25
13 12 11 11 13 13 12 11 10 10 9 9 11 12 13 13 14 14 14 13 13 12 11 11 12 13 15 16 16 16 18 18 18 18 18 17 16 15 14 15 15 16 17 17 19 19 20 19 18 20 22 22 23 24 26 26 26 28 26 26 29 29 28 25 23 24 24 24 25 24 23 22 20 20 19 16 16 16 16 14 13 16 17 16 18 20 24 27
15 13 12 12 13 14 13 12 11 10 9 9 10 11 12 12 13 14 13 12 12 11 11 10 10 11 13 14 14 15 17 18 18 19 19 19 19 18 17 16 15 15 14 15 17 18 19 19 19 20 20 21 21 21 25 25 24 27 27 27 30 32 33 31 28 28 26 26 26 25 25 24 23 22 21 19 17 16 16 16 14 15 16 15 17 19 22 26
16 15 14 13 14 15 14 13 12 11 10 9 10 11 11 12 12 13 13 12 11 11 10 10 9 10 11 12 14 15 17 17 17 18 19 19 19 20 19 19 18 17 15 14 15 16 18 18 18 19 20 21 21 21 23 24 23 25 26 28 29 30 32 33 33 32 30 29 29 27 26 25 24 23 22 19 18 17 16 17 16 16 15 13 15 18 20 23
16 15 14 14 15 15 15 14 13 11 10 10 10 11 11 12 12 13 13 13 12 11 10 10 9 9 10 11 13 14 16 17 17 17 18 19 20 20 19 19 19 18 17 16 15 15 16 17 18 18 19 20 21 21 21 23 25 25 24 26 28 29 30 31 32 32 31 31 31 28 27 27 26 24 23 20 18 18 17 17 18 18 16 16 17 18 19 21
16 15 14 14 15 15 15 15 14 13 12 11 11 11 12 12 12 13 13 13 13 12 11 10 10 9 10 11 12 13 14 14 15 16 17 18 19 20 19 19 19 18 18 17 17 17 16 16 16 16 18 19 19 19 19 22 24 24 24 25 26 27 29 30 29 29 29 30 30 27 25 26 27 26 24 22 21 20 19 19 20 20 20 20 20 19 20 20
16 15 14 14 15 15 16 16 16 15 14 13 13 13 12 13 13 13 14 13 13 13 12 11 11 10 11 11 11 12 12 12 13 15 16 17 18 19 19 19 19 18 18 19 19 19 18 17 17 17 18 19 18 17 17 19 20 22 24 24 23 22 26 30 27 25 25 26 26 22 18 17 20 24 24 24 24 24 23 21 20 21 23 24 23 22 20 20
16 15 14 14 15 17 17 17 17 17 15 14 13 13 13 13 13 13 14 13 13 13 13 12 12 11 12 12 11 12 12 13 13 14 15 16 17 18 19 19 19 18 19 20 21 21 21 20 19 19 20 20 20 18 17 16 16 18 21 23 23 18 20 27 26 23 23 23 23 22 18 12 14 19 21 23 26 27 27 25 23 23 24 25 25 25 23 22
16 16 15 15 16 17 18 18 18 17 15 13 13 12 12 12 12 12 13 13 13 13 13 13 12 12 12 13 13 13 13 13 13 14 15 15 16 17 18 19 19 19 19 19 21 22 22 22 22 21 22 22 21 20 19 17 16 17 16 16 21 22 19 23 22 19 20 21 21 21 17 15 19 22 21 21 23 28 30 29 28 26 26 26 27 27 27 27
16 17 17 17 17 17 17 17 17 15 13 12 10 10 11 11 11 11 12 12 12 13 13 12 12 13 13 13 13 13 13 13 14 14 15 15 16 17 18 18 19 19 19 19 20 21 22 22 23 23 23 23 23 23 20 18 17 19 18 11 14 21 20 21 22 19 19 18 21 22 14 10 17 19 21 24 22 23 27 30 32 30 29 29 29 30 31 31
19 20 20 19 18 17 16 16 16 14 11 10 9 10 11 12 12 12 12 12 12 12 12 12 13 13 13 13 14 14 14 14 14 14 14 15 16 17 18 18 18 18 19 19 19 20 22 22 22 22 23 23 24 24 19 16 15 17 21 18 17 21 18 17 18 18 19 18 20 21 17 14 13 9 9 17 22 25 25 26 29 31 32 31 32 33 33 34
22 22 21 20 18 17 15 15 15 14 12 11 11 11 12 13 13 13 12 12 12 12 12 12 12 11 11 12 13 13 13 14 14 14 14 14 15 15 16 17 17 17 18 19 19 20 21 22 22 22 24 25 25 26 22 18 15 16 21 22 21 23 21 19 15 14 15 16 18 18 18 21 21 14 8 7 13 22 27 27 26 27 29 31 33 33 34 34
24 24 23 21 20 18 17 15 16 16 14 12 13 13 14 15 14 12 12 12 11 11 10 9 9 9 9 9 9 10 11 11 11 12 12 13 14 14 15 16 16 16 17 18 19 19 20 22 23 24 27 28 28 29 28 25 22 21 21 21 20 20 21 22 19 15 14 11 15 18 18 21 24 23 21 16 11 14 20 25 25 26 27 28 29 31 32 33
25 25 24 23 22 20 18 16 15 16 16 14 14 14 15 14 12 11 10 9 9 9 9 9 9 10 10 11 11 11 11 11 11 10 10 11 11 12 14 14 15 15 16 17 18 19 20 22 26 28 29 28 26 26 27 28 28 26 23 21 21 19 19 22 20 18 18 13 12 14 15 19 25 26 26 25 23 20 19 20 22 24 26 27 27 27 29 31
23 22 21 20 20 18 16 15 14 14 16 15 14 14 14 13 10 9 8 8 8 9 9 10 11 11 12 12 13 13 13 14 14 13 13 13 12 12 12 13 14 15 16 16 18 19 20 24 27 27 25 24 24 23 25 27 27 27 27 23 22 21 20 20 18 17 17 15 14 14 14 17 23 25 25 26 28 28 27 25 24 24 24 26 27 27 28 30
21 20 19 18 16 14 12 12 12 12 13 13 13 11 11 10 9 8 7 8 8 8 8 9 9 10 11 12 12 13 14 14 15 16 16 16 16 15 14 14 13 14 15 16 18 19 20 25 26 23 22 22 22 23 24 25 25 26 26 25 22 23 23 19 17 17 15 14 15 17 17 19 22 23 24 25 27 29 30 30 29 28 26 26 26 27 28 30
20 19 18 16 14 12 10 9 9 9 9 9 9 8 7 6 5 5 5 5 6 6 6 7 8 8 8 8 9 10 10 12 13 14 15 16 17 17 17 16 15 15 16 15 16 17 18 20 19 18 19 21 22 23 23 24 25 26 26 25 23 24 24 17 14 16 16 14 15 15 16 20 23 24 25 26 27 29 30 31 31 31 29 27 27 28 29 31
19 18 16 14 12 10 8 7 6 6 5 5 5 5 4 3 3 3 3 3 3 4 4 5 5 4 4 5 5 6 6 7 9 10 11 13 15 16 17 17 17 18 18 17 16 17 18 17 15 13 13 15 18 22 23 24 25 27 28 29 26 26 26 20 17 17 16 16 17 13 12 19 25 26 27 28 28 29 30 31 31 31 31 29 29 30 31 32
17 15 13 12 10 9 8 7 5 4 4 3 3 4 3 2 2 2 2 1 1 1 2 2 2 2 3 4 4 4 4 4 5 6 7 9 10 12 14 15 16 18 19 19 19 19 21 21 19 16 13 12 14 18 21 22 23 23 27 30 28 27 27 24 22 20 16 17 19 14 8 13 22 26 28 30 30 30 30 31 32 31 31 31 31 32 33 33
13 12 10 9 8 7 7 7 6 5 4 4 4 4 3 3 2 1 1 2 2 1 2 2 2 2 3 3 3 3 4 3 3 3 4 5 6 8 9 11 12 14 15 16 17 19 21 20 20 18 17 15 15 15 15 16 18 17 23 27 23 23 24 22 23 20 13 11 13 14 13 10 12 19 27 30 31 32 31 31 32 33 33 33 34 34 35 35
9 8 8 8 7 7 7 6 6 5 4 4 4 3 3 3 2 2 0 3 2 1 1 1 2 1 3 2 2 1 2 2 2 1 2 2 3 5 6 8 9 10 12 12 11 13 15 13 13 15 16 17 19 19 15 13 14 15 19 20 16 17 17 17 21 22 18 13 10 13 18 14 12 17 23 26 30 33 34 34 33 35 36 36 37 37 37 37
7 6 7 8 7 7 6 6 5 4 4 3 3 3 3 3 3 3 1 2 1 2 2 2 2 1 3 2 1 0 1 2 2 2 2 1 1 2 4 6 7 7 9 10 8 9 9 6 7 8 9 13 17 19 18 16 16 18 19 17 14 13 12 12 15 20 22 18 14 16 19 12 12 18 22 23 28 31 33 36 36 36 38 39 39 39 39 39
6 6 6 7 7 6 6 6 5 5 5 4 3 3 3 3 4 2 2 2 2 3 2 1 2 2 1 1 1 1 1 1 2 2 2 2 1 2 2 3 5 6 8 9 9 10 10 7 7 7 7 10 12 13 14 16 18 20 18 16 15 13 11 10 12 19 20 14 16 23 22 12 8 15 21 24 27 30 31 34 36 37 39 40 42 41 41 41
6 6 6 5 5 5 5 5 5 5 5 5 4 4 3 4 3 0 2 2 3 3 2 2 2 1 2 2 1 1 1 1 2 3 3 2 2 2 2 2 3 4 6 7 9 10 11 10 11 10 10 10 11 11 11 13 16 17 15 14 13 11 11 11 12 16 12 10 22 27 23 18 9 11 21 26 28 31 31 31 33 36 39 41 43 43 43 43
6 6 6 5 5 5 5 5 5 5 5 5 5 4 4 4 3 1 1 3 4 3 3 3 2 2 3 3 2 2 3 3 3 3 3 3 3 4 4 4 4 4 5 6 6 8 10 11 13 13 13 12 12 12 12 12 13 14 13 10 8 6 6 6 9 12 7 8 17 18 20 22 14 11 18 24 27 30 30 30 32 34 37 40 42 44 44 44
5 6 6 6 6 6 6 5 5 6 6 6 5 5 4 3 1 1 3 4 3 2 3 3 2 3 3 3 3 4 4 5 5 5 6 6 6 6 5 5 4 3 3 3 4 5 7 11 13 13 12 12 11 10 11 12 12 13 12 10 8 4 4 5 5 6 8 7 4 7 16 18 19 23 21 20 25 28 30 32 32 34 35 38 41 42 43 43
5 6 6 6 6 6 6 6 6 7 6 6 5 4 3 1 1 3 5 6 3 2 4 3 3 4 4 5 6 6 6 7 8 7 8 8 7 7 6 5 5 3 2 3 3 3 4 7 10 11 12 12 11 9 8 8 11 14 13 13 10 4 3 6 5 2 6 7 2 8 14 9 13 24 26 27 28 28 30 32 33 34 34 36 38 40 41 41
6 6 6 7 7 7 7 7 7 6 6 5 5 4 3 2 2 4 6 5 4 4 4 4 5 5 6 6 6 7 6 6 6 6 6 6 6 5 4 5 5 4 5 5 4 3 4 4 5 7 9 10 11 12 11 10 10 13 16 17 13 7 3 4 5 2 2 3 4 10 11 6 9 15 22 27 29 29 30 31 32 33 33 34 36 37 38 38
6 6 7 8 8 7 7 7 6 6 5 5 5 4 2 2 4 5 5 5 5 4 4 5 6 6 6 6 5 5 4 3 3 3 4 4 4 4 5 5 4 4 4 3 3 3 4 5 5 6 8 8 9 11 14 13 9 10 17 18 14 12 9 4 3 4 1 2 4 10 9 11 14 16 19 21 24 29 31 31 31 31 31 31 32 33 34 35
7 7 8 8 7 7 7 6 6 5 5 5 5 4 2 3 3 4 4 4 4 4 4 4 5 4 3 3 3 3 2 2 2 3 3 4 4 4 4 4 3 3 2 2 3 2 2 5 5 5 8 8 8 9 11 12 9 8 11 14 15 16 12 6 5 4 3 3 5 11 10 12 14 15 20 22 22 26 29 31 31 29 28 29 28 29 30 31
7 8 8 7 7 7 7 6 6 6 5 4 3 3 1 3 3 3 4 4 4 5 4 3 3 3 3 3 4 4 3 3 3 3 3 4 3 3 3 3 3 3 2 3 3 3 5 7 8 9 10 9 9 9 9 11 12 11 9 11 15 16 13 10 6 3 3 5 6 11 13 12 10 10 19 25 23 23 27 29 29 28 28 27 27 28 28 28
7 8 8 7 7 7 7 7 6 5 4 3 2 1 1 2 3 4 4 5 5 5 4 3 3 3 3 4 4 5 5 5 6 5 4 3 2 3 4 3 4 4 4 3 3 4 6 7 9 11 10 9 9 9 9 10 12 12 12 13 12 10 9 10 7 4 5 7 5 9 14 13 11 12 17 23 25 25 27 27 28 28 28 27 28 28 28 28
8 8 7 7 7 7 7 7 5 4 3 3 2 1 1 2 2 3 3 4 4 4 2 1 2 3 4 5 6 7 7 7 7 5 4 3 3 4 5 4 5 5 6 6 5 6 6 5 6 7 7 8 9 8 7 9 10 10 12 13 11 10 8 7 6 5 5 7 7 7 8 7 11 16 16 17 23 27 28 28 28 28 28 28 28 28 28 28
7 7 7 7 7 7 7 5 3 4 4 3 2 1 0 1 2 2 2 3 3 3 3 3 4 5 6 6 6 7 6 5 4 3 4 4 3 4 5 6 6 6 7 8 7 7 7 6 7 9 8 8 9 8 9 12 11 10 10 10 9 10 9 9 12 11 7 5 6 7 5 2 8 14 12 14 22 27 28 28 28 28 28 28 27 28 28 28
7 7 7 6 7 8 6 3 3 5 5 4 3 2 1 0 1 2 2 3 3 4 4 4 4 4 4 4 4 4 4 2 1 1 4 5 4 4 4 4 6 6 6 7 8 8 8 8 11 14 13 11 13 15 17 18 17 15 14 12 11 10 7 7 10 10 9 6 4 7 6 1 3 8 11 17 22 24 27 27 27 27 27 26 27 27 27 27
7 8 7 6 7 7 4 3 4 5 5 4 3 2 1 1 1 1 2 3 3 3 4 3 3 2 2 2 2 3 3 1 1 2 4 5 4 5 6 6 7 8 8 8 8 7 8 9 11 13 12 12 14 15 16 17 18 17 16 13 11 9 7 5 5 4 6 8 8 7 5 4 9 11 11 15 18 21 26 27 26 26 25 25 25 24 25 25
7 7 6 7 7 6 3 4 5 5 5 4 3 3 2 2 2 2 2 2 2 3 3 2 2 2 2 2 2 2 2 2 0 2 3 3 4 5 6 8 8 8 8 7 5 5 6 7 8 9 10 10 10 11 11 12 13 12 13 12 9 8 6 7 8 8 8 10 11 8 4 4 10 14 13 14 15 20 26 26 26 25 24 23 23 23 23 23
7 6 6 7 6 4 3 5 5 5 4 4 3 3 3 3 3 2 3 3 3 3 2 3 3 3 3 3 3 3 2 1 2 2 2 3 4 5 6 7 8 8 8 7 7 7 7 6 6 7 8 6 4 4 4 5 6 6 7 9 8 8 7 8 11 9 6 8 10 9 5 2 5 8 12 15 17 22 26 26 26 25 23 23 22 21 22 21
7 6 5 6 5 3 4 5 4 4 4 4 3 3 4 3 3 3 3 4 4 3 3 4 4 4 4 4 4 3 3 1 2 3 3 4 5 6 7 8 9 10 11 11 11 11 9 9 8 5 4 3 3 3 4 7 10 11 12 13 14 14 14 13 12 9 6 6 8 9 6 6 10 12 11 14 18 23 26 26 25 23 22 23 22 22 22 22
7 5 5 5 3 3 5 4 4 4 4 3 3 3 3 3 3 4 4 5 4 4 4 5 5 5 5 5 4 4 3 2 1 2 3 4 6 7 8 9 10 11 12 13 12 12 10 11 11 8 8 10 10 11 13 16 18 19 20 21 21 22 22 19 14 10 10 12 16 20 18 16 21 20 14 13 17 22 26 25 23 21 20 21 21 22 23 23
6 5 5 4 2 3 4 4 4 4 4 4 3 3 4 4 4 4 5 5 5 5 5 5 5 5 5 5 5 4 3 3 2 2 3 5 6 7 8 10 10 10 11 11 10 10 9 9 9 10 11 13 15 16 17 19 20 20 21 21 22 23 23 23 21 19 16 13 15 18 17 16 19 18 13 11 13 20 24 24 22 22 21 22 23 23 24 25
6 4 4 3 3 3 3 4 4 4 4 4 4 4 4 4 4 5 5 5 5 5 5 5 5 5 5 4 4 4 4 3 3 3 3 5 6 7 8 9 9 9 9 9 9 8 8 8 9 10 10 12 14 15 16 17 17 18 18 18 20 21 22 24 27 28 24 21 21 20 18 21 23 21 20 19 17 19 22 23 24 25 26 28 28 29 29 29
5 4 4 3 3 3 3 3 4 4 4 4 4 4 4 5 5 5 5 6 6 6 5 5 5 5 5 4 4 4 4 4 3 3 3 4 5 6 7 7 7 7 8 9 9 9 7 7 8 9 11 12 13 16 17 18 20 21 21 22 22 23 24 25 27 28 26 27 31 31 29 31 32 30 31 31 28 28 28 29 30 32 32 33 34 35 35 34
5 4 4 4 3 2 2 3 3 3 4 4 3 4 5 5 5 5 6 6 6 5 5 5 5 5 5 5 5 5 4 4 4 4 4 4 5 5 6 6 6 7 8 9 10 9 7 6 8 11 13 15 16 17 18 19 21 24 27 28 28 29 29 29 30 30 30 31 34 33 33 35 35 33 32 30 29 29 29 29 30 30 32 33 35 36 37 37
5 4 4 4 3 2 2 2 3 3 3 4 4 4 4 5 5 5 5 6 6 5 6 6 6 6 6 6 6 5 5 4 4 4 4 4 5 5 5 5 6 7 8 8 8 9 7 7 10 11 12 14 15 15 16 18 21 25 26 25 22 22 22 23 24 25 28 31 31 29 30 32 33 32 29 26 25 25 26 27 28 29 30 31 33 35 36 37
4 4 4 3 2 2 2 2 2 3 3 3 4 4 4 5 5 5 5 5 5 5 6 6 6 6 6 7 7 6 6 6 6 5 5 5 5 5 5 5 6 6 6 7 7 8 8 8 10 10 8 10 12 13 15 17 17 17 16 12 10 12 14 16 17 18 20 23 24 23 23 26 28 29 28 27 26 26 26 27 28 29 30 30 31 32 33 34
Wind_Direction
299 297 296 296 294 292 291 291 291 290 288 286 284 283 283 282 280 278 277 275 273 273 272 270 268 267 267 263 258 257 258 256 252 249 248 248 250 251 249 248 247 245 239 233 229 229 231 231 230 229 225 226 227 223 225 228 225 224 227 229 232 233 231 234 236 234 237 241 245 246 244 244 246 247 244 241 240 239 237 234 234 233 232 234 237 237 233 233
297 293 293 294 293 291 290 290 291 291 292 291 286 282 279 278 277 276 275 272 270 270 271 270 268 265 263 263 259 255 256 257 254 249 247 249 249 249 249 247 246 246 243 238 232 227 227 228 227 226 224 224 225 222 220 225 227 226 227 231 233 234 234 237 240 239 239 241 243 245 245 245 245 246 244 243 242 240 239 236 233 232 231 232 235 237 235 233
299 294 291 291 292 291 289 288 289 292 294 295 294 289 283 279 277 275 274 272 269 267 268 268 268 265 262 260 259 257 255 256 256 252 249 248 248 247 248 247 246 245 243 240 236 230 226 225 223 223 223 221 222 223 221 220 226 229 230 234 236 236 238 240 243 244 244 246 249 249 249 249 250 248 246 246 245 241 239 236 235 233 233 235 235 238 237 234
306 298 293 292 293 292 289 287 288 290 292 295 296 294 290 286 284 281 278 275 271 267 265 265 265 264 261 258 257 257 256 256 256 254 250 248 247 246 245 246 246 245 244 241 239 236 230 225 225 223 223 221 218 221 223 221 224 228 230 234 237 241 243 243 243 244 246 247 249 250 250 250 250 247 244 245 245 243 240 232 231 231 230 233 235 238 239 237
312 300 296 295 296 296 294 293 289 288 289 292 292 292 291 290 290 289 285 281 276 270 265 262 260 260 259 257 254 254 256 258 256 252 250 249 248 246 244 244 244 244 244 242 240 239 235 227 225 226 224 222 217 218 223 222 223 228 230 233 236 240 243 243 244 245 246 244 243 244 242 242 245 244 243 243 243 244 246 236 228 227 226 227 229 234 239 239
319 303 296 297 299 302 303 301 296 293 292 291 289 288 288 289 290 291 290 287 283 276 268 262 259 256 255 254 252 252 252 254 254 249 247 247 247 247 244 242 242 244 244 243 241 240 238 231 226 227 226 224 222 222 224 222 223 228 231 234 236 238 243 245 245 245 245 244 241 239 235 234 238 243 242 241 240 242 249 245 232 226 226 228 227 227 232 233
324 313 302 299 300 301 302 302 301 302 301 296 291 288 287 288 289 290 289 288 286 281 272 265 260 256 253 251 251 250 249 249 250 248 243 242 243 244 243 241 240 242 244 244 243 241 240 235 228 228 228 226 227 226 226 223 223 226 229 234 235 234 239 243 242 243 245 244 242 238 238 240 241 246 245 241 240 239 244 250 241 232 228 227 228 226 226 225
321 319 311 306 303 300 299 299 300 302 302 299 294 291 289 289 289 289 288 288 287 283 278 270 263 258 254 251 249 248 248 249 249 248 246 243 242 241 240 238 237 239 243 244 244 242 239 235 228 228 229 229 229 229 231 230 227 226 226 231 233 232 234 236 236 238 241 243 243 241 244 247 246 249 249 243 242 240 241 245 241 238 236 230 228 228 227 224
318 316 313 312 308 303 301 299 297 295 295 295 294 293 292 291 289 287 287 288 287 285 283 276 267 262 258 254 251 248 247 248 248 250 250 248 245 242 240 238 239 239 242 245 244 240 237 234 228 227 230 231 230 229 233 233 231 230 227 229 232 232 233 234 234 235 236 240 241 242 244 247 247 249 249 245 242 240 239 240 234 235 243 239 235 233 232 229
319 315 311 310 308 305 305 304 300 295 291 289 289 290 291 290 287 284 284 284 284 285 285 282 275 266 261 257 253 249 247 247 248 249 251 252 250 246 243 241 242 241 241 243 244 240 235 231 227 226 229 231 229 228 232 231 232 235 231 232 236 237 237 237 238 239 239 241 243 243 244 247 247 246 245 243 239 237 235 236 233 232 238 240 239 236 234 231
317 315 313 311 307 304 306 306 303 300 295 290 287 286 287 286 284 281 279 279 280 281 282 283 280 272 266 260 255 253 250 249 250 249 250 251 252 250 246 243 242 241 237 235 237 237 233 230 227 225 228 232 231 230 233 232 234 239 237 237 240 242 245 244 242 243 243 245 248 246 246 247 247 242 238 237 236 236 234 234 234 233 234 235 239 239 235 230
313 313 314 313 308 306 306 306 304 303 300 295 290 287 285 282 281 278 276 276 276 277 277 278 279 277 271 264 260 258 255 252 252 251 249 248 249 251 249 245 242 238 235 232 231 231 231 232 231 229 229 232 232 232 236 236 235 239 240 240 242 243 246 247 244 243 241 242 245 245 248 251 249 244 238 235 235 236 235 233 233 233 233 234 237 240 241 238
311 311 312 312 310 307 307 306 305 303 302 299 295 292 289 284 280 278 276 276 276 275 275 274 274 275 273 269 264 260 259 256 253 251 249 246 245 247 248 248 244 239 235 233 231 230 231 235 238 237 235 233 232 230 234 237 237 238 240 241 243 247 248 246 244 244 242 240 239 240 246 252 252 248 241 235 233 233 233 233 233 233 233 235 236 237 240 243
311 311 310 310 310 309 309 307 305 303 302 300 298 298 295 291 285 280 278 277 277 277 276 274 272 271 270 270 267 263 259 256 254 252 250 247 244 245 246 247 247 243 237 234 234 233 234 238 242 243 240 237 234 231 233 236 236 235 239 241 240 243 250 248 244 246 246 241 238 236 237 244 254 251 241 234 232 231 233 233 234 234 235 236 236 238 239 241
311 310 308 308 310 312 312 310 307 304 303 302 301 303 301 299 294 286 282 279 277 278 277 275 273 271 270 269 267 263 260 257 255 253 251 248 245 244 245 245 246 245 241 237 236 236 236 238 240 242 242 240 237 234 233 235 235 231 232 239 238 234 245 252 249 247 245 242 239 233 234 243 248 250 245 237 233 231 233 234 235 236 237 238 238 240 241 242
311 309 307 307 309 312 314 313 310 306 305 305 307 310 309 307 301 295 288 283 279 278 276 274 272 271 271 269 266 264 262 258 255 252 250 248 246 244 245 245 245 245 244 241 238 237 237 237 237 239 241 239 236 234 233 236 237 233 228 227 238 238 244 253 251 246 242 239 234 227 224 239 244 248 246 239 234 232 233 235 237 238 238 239 240 241 242 243
311 308 305 304 306 308 311 311 309 307 307 308 311 313 314 312 306 300 293 287 282 278 275 272 269 268 267 267 265 264 262 259 255 252 249 249 247 246 245 246 245 244 244 243 240 237 235 235 235 236 237 236 235 232 230 233 230 228 232 232 241 245 243 246 248 245 239 233 230 224 218 229 238 241 238 232 232 232 232 234 236 237 238 239 240 240 240 242
309 306 305 304 305 304 304 303 302 302 301 303 307 310 312 311 307 301 293 287 283 280 276 271 266 263 263 264 262 261 261 260 258 255 251 249 248 247 245 245 246 245 243 242 240 236 235 235 234 234 235 233 231 226 222 226 225 225 235 237 242 247 243 239 241 244 240 232 231 224 215 227 236 233 226 219 223 227 228 230 233 235 236 237 239 241 241 242
308 306 306 306 305 303 299 294 292 293 295 297 301 305 306 306 305 300 291 284 281 278 274 269 261 254 254 256 255 256 258 260 260 258 254 251 248 247 246 244 245 244 242 240 238 236 234 234 232 231 232 232 231 230 231 237 241 240 243 243 245 250 250 248 246 246 247 237 233 229 223 230 236 234 234 233 228 222 223 226 229 233 234 235 238 241 242 242
312 308 308 308 305 301 295 289 285 286 291 295 297 300 301 300 301 297 287 279 275 271 265 262 259 255 256 256 255 255 256 259 261 257 253 251 247 247 247 245 246 244 241 238 238 237 234 234 235 234 236 239 242 244 245 247 250 249 249 251 253 254 256 258 256 251 249 243 237 234 228 232 235 237 239 239 239 237 233 231 231 234 236 237 239 241 240 240
321 317 318 317 311 303 295 289 283 283 289 295 297 297 296 294 293 286 278 273 269 264 261 260 260 260 260 260 260 259 259 260 259 257 255 252 251 250 249 248 247 246 244 240 238 237 234 236 239 241 245 249 250 249 249 249 251 251 250 252 256 255 254 258 258 253 251 246 242 239 229 228 234 238 241 241 241 242 242 242 241 240 240 240 240 240 239 238
328 327 329 327 320 312 304 296 290 285 285 290 294 293 288 285 281 274 271 269 267 264 262 262 262 263 263 263 263 261 261 260 259 258 257 255 254 250 248 246 245 245 243 240 237 236 237 241 246 249 249 248 247 246 247 248 249 250 250 250 252 253 253 258 260 258 257 251 247 245 237 233 235 237 238 238 240 241 243 244 244 243 241 239 239 237 236 236
328 329 332 331 328 326 321 314 305 297 291 289 291 290 284 281 278 276 271 262 264 270 270 269 270 271 270 269 268 266 266 263 261 260 257 256 254 250 246 242 240 242 241 238 237 236 240 248 252 251 248 246 245 246 246 247 247 246 246 245 247 250 251 254 259 259 259 255 250 248 244 241 239 237 236 236 237 238 240 241 241 241 239 238 237 235 233 233
327 329 331 333 335 339 341 342 331 320 318 311 303 304 302 305 299 287 286 276 266 269 274 275 272 276 285 287 286 281 274 266 264 263 257 255 253 250 246 242 239 241 241 241 241 240 242 249 253 250 248 247 245 245 245 245 247 247 246 245 245 250 252 252 253 256 261 262 255 249 250 248 242 238 236 235 235 236 236 237 238 237 235 234 234 232 231 231
327 330 334 339 347 354 1 8 12 8 1 353 339 338 347 348 332 307 299 296 188 209 255 266 254 284 301 299 300 285 270 268 263 262 260 256 253 249 245 243 240 241 243 244 245 247 247 250 254 252 250 248 245 246 244 243 246 250 252 250 248 252 257 257 256 257 262 263 256 245 242 248 242 240 238 236 235 235 234 234 234 233 231 230 231 230 229 229
330 335 341 351 0 8 14 18 23 22 19 16 6 1 9 3 1 354 284 172 134 164 246 244 236 309 322 306 304 281 264 267 248 255 268 260 254 247 243 243 240 240 242 243 246 251 253 254 254 252 249 244 243 246 243 241 243 249 256 255 253 254 255 255 253 250 248 252 251 236 230 244 245 238 238 236 235 235 234 233 231 229 228 228 229 229 228 229
334 341 346 355 5 12 15 17 17 14 13 14 12 8 6 8 12 355 249 154 133 219 232 200 197 291 334 316 319 305 244 231 216 272 298 273 257 243 237 237 235 235 237 237 240 251 256 257 255 252 248 244 244 245 243 242 242 245 254 259 261 258 254 252 248 243 238 242 254 238 231 245 254 240 237 235 234 233 232 232 230 227 226 225 226 227 228 228
335 343 347 350 357 4 7 8 5 3 2 4 9 3 353 2 358 330 208 145 140 177 146 117 166 296 330 299 280 278 197 220 240 278 295 304 287 247 231 229 227 224 229 228 227 246 257 253 249 247 246 246 247 249 248 245 244 248 259 268 268 263 257 249 243 240 239 244 254 237 223 238 254 239 238 238 236 235 232 230 229 227 225 224 225 226 227 228
330 339 346 346 347 352 355 353 351 349 348 348 354 351 343 349 345 316 189 171 199 195 197 223 233 295 333 124 141 163 214 246 239 244 269 289 274 256 245 231 228 225 229 227 224 242 250 247 249 246 246 251 252 255 249 242 244 250 260 265 261 261 253 237 232 234 235 239 245 232 217 221 255 241 236 237 236 237 235 232 230 228 226 225 225 226 228 229
327 333 340 339 336 338 338 337 339 337 334 333 336 337 337 339 334 256 172 210 203 197 218 216 208 209 179 169 164 209 258 260 234 243 261 263 245 258 266 249 248 236 236 238 234 242 249 252 256 252 251 255 255 258 250 242 244 246 252 255 252 252 243 231 224 222 223 238 245 238 219 216 244 247 232 231 235 239 239 236 233 231 229 227 226 227 229 230
326 328 328 328 326 326 330 333 333 328 325 326 328 328 333 329 311 187 169 200 190 195 222 213 211 203 199 219 225 233 257 251 244 253 260 257 256 267 263 256 265 251 244 250 245 246 249 249 253 253 254 256 256 258 254 247 244 243 245 240 228 219 213 211 205 202 205 240 245 236 215 213 227 236 226 227 235 239 240 239 236 234 231 229 229 228 229 231
323 321 317 320 323 325 332 336 331 324 322 323 324 326 330 327 287 171 168 180 191 215 205 188 190 195 199 218 235 252 259 256 258 262 269 270 268 270 266 262 266 241 227 238 234 247 251 245 246 248 248 250 253 256 256 249 242 238 228 209 200 179 170 192 177 186 220 235 236 189 189 204 227 236 235 232 234 236 236 237 236 234 233 231 231 231 231 233
318 314 313 319 328 329 331 333 328 322 321 321 324 327 327 325 172 172 175 179 201 222 198 196 217 227 240 250 259 264 261 268 273 268 272 275 275 280 275 271 271 238 231 261 261 271 263 249 246 241 240 244 241 237 244 242 232 227 209 196 206 196 179 214 197 193 241 236 206 165 175 198 235 236 238 236 233 233 233 233 234 234 233 232 232 232 233 233
315 317 321 327 331 329 329 328 324 321 321 321 324 326 316 271 210 200 197 205 229 236 230 247 261 267 272 269 265 263 258 268 275 271 275 277 277 286 282 279 278 255 257 279 286 276 250 249 251 229 228 242 238 225 224 223 222 223 210 204 219 233 245 233 207 216 238 189 157 159 171 215 231 230 237 235 232 232 232 232 233 233 233 232 232 232 232 233
320 324 328 331 329 328 328 326 322 321 323 324 325 323 303 238 213 205 209 227 241 245 253 271 283 288 285 275 261 253 242 243 264 273 278 280 281 286 281 279 282 274 267 267 281 279 249 248 256 233 230 243 238 227 227 226 228 233 222 217 229 244 255 277 275 258 293 63 165 173 198 236 231 234 240 236 233 231 231 234 234 233 234 233 233 232 231 232
328 329 330 330 328 328 327 325 327 326 325 325 320 313 277 210 209 213 220 235 241 253 266 277 292 292 272 249 210 191 194 232 274 285 284 296 300 292 285 282 285 285 260 234 265 295 256 238 239 238 244 248 239 234 232 226 226 233 225 224 234 241 246 268 293 274 258 294 223 191 211 236 233 243 242 236 236 230 230 235 235 235 235 233 233 232 231 231
331 329 330 332 330 331 330 330 331 326 326 327 314 306 257 205 224 240 241 249 251 264 272 260 274 272 223 195 183 189 220 267 282 286 290 307 314 297 292 293 296 292 268 256 266 278 279 266 257 256 260 261 256 253 249 235 232 233 230 235 240 243 247 245 253 271 232 255 231 197 210 221 215 237 241 235 236 232 230 233 233 233 233 231 231 230 229 229
331 330 331 333 334 334 333 333 333 334 343 348 326 303 245 218 242 251 253 263 269 283 286 243 243 252 218 204 212 232 258 274 280 279 272 281 291 285 282 277 281 282 270 267 268 278 294 289 273 264 261 264 263 257 258 248 238 237 242 248 248 249 253 232 224 262 244 245 250 206 211 219 207 221 236 232 230 229 228 228 227 228 227 226 226 226 226 227
332 333 333 334 337 337 336 336 339 351 1 353 331 294 242 242 262 258 263 277 287 300 303 232 231 242 240 247 258 265 272 276 278 271 248 241 249 258 261 256 263 268 263 266 270 279 293 291 275 264 250 263 271 257 262 264 247 243 250 255 251 246 258 247 232 267 261 252 262 220 201 206 209 220 232 229 225 224 221 221 221 221 221 222 222 223 224 225
335 336 335 335 338 340 340 343 354 359 353 349 348 342 219 272 283 284 292 296 306 311 296 277 272 265 267 274 276 281 287 284 278 258 222 210 205 234 257 255 254 262 266 270 270 275 284 269 258 261 255 275 292 278 287 295 282 271 270 271 269 254 258 265 253 255 262 264 269 249 230 181 210 222 219 217 223 221 217 216 215 215 216 217 218 220 221 223
338 339 339 338 341 344 348 359 2 354 356 7 20 31 59 332 302 315 323 310 315 315 300 296 293 283 281 286 286 301 312 303 285 213 196 200 199 222 248 250 253 264 269 270 271 273 274 261 263 276 278 284 287 279 283 290 289 291 290 288 289 282 278 275 256 249 252 256 278 270 258 251 249 232 208 216 226 221 214 213 212 212 213 213 215 217 219 221
339 340 342 342 346 349 357 9 357 354 1 14 29 35 47 40 8 353 344 332 330 329 322 322 325 330 332 317 310 324 340 347 301 191 185 199 219 236 253 268 276 282 285 286 283 278 273 268 275 286 288 286 284 281 280 280 279 283 286 285 286 282 271 255 265 314 295 274 288 291 271 255 265 259 236 234 234 221 215 212 210 211 212 213 216 218 220 222
341 342 344 345 348 354 2 360 355 0 12 22 40 51 57 54 41 31 17 6 1 357 356 7 15 15 7 354 350 352 2 15 70 167 181 214 246 257 269 284 293 295 299 300 297 295 294 290 291 295 294 290 285 279 274 273 274 271 272 280 283 274 265 250 266 307 309 280 279 277 251 230 254 261 256 244 227 216 216 214 212 213 214 216 220 222 225 227
345 345 346 348 349 356 0 354 356 7 17 23 42 54 57 56 52 52 50 45 40 33 31 41 44 34 23 18 20 19 20 49 166 197 252 268 275 282 286 295 302 302 303 299 293 301 304 296 302 312 308 299 279 266 257 260 270 264 266 283 286 280 284 277 277 287 281 262 259 254 253 279 283 278 259 237 219 212 214 214 215 217 218 222 226 230 233 236
348 345 346 350 353 3 2 357 2 14 19 26 46 55 53 56 68 69 66 68 62 51 50 54 54 47 40 37 34 27 28 53 202 235 278 285 286 296 300 304 307 306 304 300 299 302 296 284 288 295 285 273 275 280 279 276 275 272 271 277 281 284 288 291 294 286 264 266 266 258 274 307 303 301 279 248 230 218 213 214 216 219 224 229 234 239 243 246
348 345 347 351 356 5 3 4 13 21 25 33 50 61 58 68 83 78 78 79 67 58 58 56 54 51 44 39 35 32 35 35 312 269 293 297 294 299 301 304 305 301 299 301 303 302 295 286 284 274 259 265 273 276 276 278 277 276 275 277 278 280 282 286 286 265 261 289 287 272 271 281 287 291 287 266 247 231 221 218 221 227 235 240 244 248 251 254
345 346 350 355 356 355 1 12 20 25 32 37 55 74 71 76 86 82 81 78 67 64 64 56 52 51 45 37 35 38 36 25 1 323 312 307 303 301 301 304 305 300 298 303 305 302 297 293 288 281 272 269 273 275 274 275 277 278 278 278 277 277 277 276 269 260 266 285 282 271 270 274 279 284 286 276 254 239 230 226 231 242 250 257 261 261 263 264
343 349 357 2 3 357 4 17 23 29 35 42 64 81 75 77 83 82 81 78 72 68 62 59 57 53 47 40 36 37 33 21 12 355 334 318 309 305 304 306 306 304 303 305 307 305 302 298 292 285 279 275 276 278 276 275 277 278 277 276 276 274 272 269 266 266 267 264 262 267 269 266 268 272 275 275 268 257 250 247 252 259 264 268 271 272 274 275
347 357 4 8 10 10 18 24 28 36 41 48 68 77 74 78 83 83 82 79 79 74 65 65 65 59 55 47 39 39 36 23 13 2 343 323 313 311 309 308 307 307 309 308 309 312 310 301 291 283 279 279 277 277 278 279 280 280 278 276 274 270 267 267 266 267 266 263 264 269 270 269 269 268 269 272 272 270 268 266 267 268 269 271 274 276 278 279
353 359 4 11 16 26 36 34 36 46 50 53 63 72 77 79 81 85 82 78 81 79 70 68 67 63 63 58 51 47 41 31 16 2 353 334 324 321 317 316 316 312 312 312 310 311 309 287 281 286 287 287 285 282 281 281 283 283 281 279 277 275 271 269 267 267 265 265 267 269 272 273 271 269 270 271 269 269 270 270 270 271 272 273 274 276 278 280
353 359 5 11 21 35 41 42 47 55 63 62 58 72 84 80 81 89 84 79 80 77 71 67 62 60 60 56 53 50 45 40 25 7 358 347 339 337 330 325 323 316 312 311 307 306 304 287 284 293 294 293 294 291 288 290 291 289 288 286 283 280 277 274 271 268 266 266 266 267 268 270 270 270 272 270 267 267 268 269 271 273 275 277 277 277 278 280
351 360 7 8 21 48 54 54 56 60 73 72 64 74 86 82 86 87 75 75 78 71 69 65 60 59 55 48 46 45 40 32 23 13 5 358 351 344 339 330 324 320 315 313 310 308 306 299 298 301 295 291 295 296 299 306 305 296 293 296 296 292 288 284 277 271 267 266 265 263 262 264 268 270 272 271 270 269 269 270 273 275 277 279 279 279 279 279
Height
3072 3071 3070 3069 3068 3068 3067 3066 3066 3065 3065 3066 3066 3066 3066 3066 3066 3066 3066 3066 3066 3066 3066 3066 3066 3066 3066 3066 3066 3066 3066 3067 3067 3067 3067 3067 3067 3068 3069 3069 3070 3070 3070 3071 3071 3072 3073 3074 3075 3076 3077 3078 3078 3080 3081 3083 3084 3084 3084 3084 3083 3084 3086 3086 3087 3088 3088 3088 3089 3090 3091 3092 3093 3093 3094 3095 3095 3096 3097 3097 3098 3099 3100 3102 3103 3104 3106 3108
3070 3069 3068 3067 3066 3066 3065 3064 3064 3063 3063 3063 3063 3063 3063 3063 3063 3063 3063 3064 3064 3063 3063 3064 3064 3064 3064 3064 3064 3064 3064 3065 3065 3065 3065 3066 3066 3066 3067 3068 3068 3069 3069 3070 3070 3070 3071 3072 3073 3074 3075 3076 3077 3078 3080 3081 3081 3081 3081 3081 3080 3082 3084 3085 3086 3087 3087 3088 3088 3088 3089 3090 3091 3091 3092 3093 3094 3094 3094 3095 3096 3097 3098 3099 3101 3102 3104 3105
3068 3067 3066 3066 3065 3064 3063 3062 3062 3061 3061 3061 3061 3060 3060 3060 3060 3060 3061 3061 3061 3061 3061 3061 3061 3062 3062 3062 3062 3062 3062 3063 3063 3064 3064 3064 3064 3064 3065 3066 3066 3067 3068 3068 3069 3069 3069 3070 3071 3071 3072 3074 3076 3077 3078 3078 3079 3079 3079 3078 3079 3081 3082 3083 3085 3085 3086 3087 3087 3087 3088 3089 3089 3090 3090 3091 3092 3093 3092 3093 3094 3095 3097 3098 3099 3100 3101 3103
3066 3065 3064 3064 3063 3062 3061 3060 3060 3060 3059 3059 3059 3058 3058 3058 3058 3058 3058 3058 3058 3058 3058 3058 3059 3059 3060 3060 3060 3060 3060 3061 3061 3061 3062 3062 3062 3063 3063 3064 3064 3065 3066 3066 3067 3067 3068 3068 3069 3070 3070 3072 3074 3075 3075 3076 3076 3077 3077 3076 3078 3080 3081 3082 3083 3084 3084 3085 3086 3086 3087 3087 3087 3088 3089 3089 3091 3091 3091 3091 3092 3093 3095 3096 3096 3097 3099 3100
3064 3063 3063 3062 3061 3060 3059 3059 3058 3058 3057 3057 3057 3057 3057 3056 3056 3056 3056 3056 3056 3056 3056 3056 3056 3057 3057 3058 3058 3058 3059 3059 3059 3059 3060 3060 3060 3061 3061 3062 3062 3063 3064 3064 3065 3066 3066 3067 3068 3068 3069 3070 3072 3072 3072 3074 3075 3075 3074 3075 3077 3078 3079 3080 3081 3082 3082 3083 3084 3084 3085 3086 3086 3086 3087 3088 3089 3089 3089 3089 3090 3091 3092 3093 3094 3095 3096 3098
3063 3062 3061 3060 3059 3058 3058 3057 3057 3056 3056 3055 3055 3054 3055 3055 3054 3054 3054 3054 3053 3053 3053 3053 3054 3054 3054 3055 3056 3057 3057 3057 3056 3057 3057 3058 3058 3059 3059 3060 3060 3061 3062 3062 3063 3063 3064 3065 3066 3066 3067 3068 3069 3069 3070 3072 3073 3073 3073 3074 3076 3077 3077 3077 3079 3080 3080 3081 3082 3083 3083 3084 3084 3084 3085 3086 3086 3086 3087 3088 3088 3089 3089 3090 3091 3092 3094 3095
3061 3060 3059 3059 3058 3057 3056 3055 3055 3054 3054 3053 3053 3052 3053 3053 3052 3052 3052 3051 3051 3051 3051 3051 3051 3052 3052 3052 3053 3054 3055 3055 3055 3055 3055 3056 3056 3057 3057 3058 3059 3059 3060 3060 3061 3062 3062 3063 3065 3065 3066 3066 3066 3067 3069 3070 3070 3071 3072 3073 3074 3075 3075 3075 3077 3077 3078 3079 3080 3081 3082 3082 3083 3083 3084 3085 3085 3085 3085 3086 3087 3087 3087 3088 3089 3089 3090 3091
3060 3059 3058 3057 3056 3055 3054 3054 3053 3053 3052 3051 3051 3050 3051 3051 3051 3050 3050 3050 3049 3049 3049 3049 3049 3050 3050 3050 3051 3052 3052 3052 3053 3053 3054 3054 3054 3055 3056 3056 3057 3057 3058 3059 3059 3060 3060 3061 3063 3063 3064 3064 3065 3066 3066 3067 3068 3069 3071 3071 3071 3072 3073 3073 3074 3075 3076 3076 3078 3079 3079 3080 3081 3081 3082 3083 3083 3083 3084 3084 3085 3085 3085 3085 3085 3086 3086 3087
3058 3057 3056 3055 3054 3053 3052 3052 3051 3051 3050 3050 3049 3049 3049 3049 3049 3048 3048 3048 3048 3048 3047 3047 3048 3048 3048 3048 3049 3049 3050 3050 3051 3051 3052 3052 3053 3053 3054 3054 3055 3056 3056 3057 3057 3058 3058 3060 3061 3061 3062 3063 3063 3064 3064 3065 3066 3066 3068 3069 3069 3069 3070 3071 3071 3072 3073 3074 3075 3076 3077 3078 3079 3080 3081 3082 3082 3082 3082 3083 3083 3083 3082 3082 3083 3084 3084 3085
3056 3055 3054 3053 3052 3051 3051 3050 3049 3049 3049 3048 3047 3047 3047 3047 3047 3047 3046 3046 3046 3046 3046 3046 3046 3046 3046 3046 3047 3047 3047 3048 3049 3049 3050 3050 3051 3051 3052 3052 3053 3054 3054 3055 3056 3056 3057 3058 3059 3059 3060 3060 3061 3062 3062 3063 3063 3064 3066 3066 3066 3067 3067 3068 3069 3070 3071 3072 3073 3074 3075 3076 3077 3078 3079 3080 3080 3081 3080 3081 3081 3081 3081 3081 3081 3082 3083 3083
3054 3053 3052 3051 3050 3049 3049 3048 3047 3047 3047 3046 3046 3045 3045 3045 3045 3045 3045 3045 3045 3044 3044 3044 3044 3044 3044 3044 3045 3045 3045 3046 3046 3047 3048 3048 3049 3049 3050 3050 3051 3052 3052 3053 3054 3055 3055 3056 3057 3057 3058 3058 3059 3060 3060 3061 3061 3061 3063 3064 3064 3064 3065 3065 3066 3068 3070 3071 3071 3072 3073 3073 3074 3075 3077 3078 3079 3079 3079 3079 3078 3079 3080 3080 3080 3080 3080 3081
3052 3051 3051 3050 3048 3047 3047 3046 3045 3045 3045 3044 3043 3043 3043 3043 3043 3043 3043 3043 3043 3043 3042 3042 3042 3042 3042 3043 3043 3043 3043 3044 3044 3045 3045 3046 3047 3047 3048 3048 3049 3050 3050 3051 3052 3053 3054 3054 3055 3056 3056 3056 3057 3058 3058 3058 3059 3060 3061 3062 3062 3062 3062 3062 3063 3065 3067 3068 3068 3070 3071 3070 3071 3072 3075 3076 3077 3077 3077 3077 3076 3077 3077 3077 3078 3078 3078 3079
3050 3049 3049 3048 3047 3046 3045 3044 3043 3043 3042 3042 3041 3041 3041 3041 3041 3041 3041 3041 3041 3041 3041 3040 3040 3040 3040 3041 3041 3041 3041 3042 3042 3042 3043 3044 3044 3045 3046 3046 3047 3048 3048 3049 3050 3051 3052 3052 3053 3054 3054 3054 3055 3056 3056 3056 3057 3058 3059 3059 3060 3060 3059 3059 3061 3063 3064 3065 3066 3069 3070 3069 3068 3069 3072 3074 3075 3075 3075 3075 3074 3075 3075 3075 3076 3076 3076 3077
3048 3047 3047 3046 3045 3044 3043 3042 3041 3040 3040 3040 3039 3039 3038 3038 3038 3038 3038 3038 3038 3039 3039 3039 3039 3039 3039 3039 3039 3039 3039 3040 3040 3041 3041 3042 3042 3043 3044 3044 3045 3046 3047 3047 3048 3049 3050 3050 3051 3052 3052 3053 3054 3054 3054 3055 3056 3056 3057 3057 3057 3059 3057 3056 3059 3061 3062 3063 3065 3067 3068 3067 3066 3067 3069 3070 3072 3072 3072 3073 3072 3072 3073 3073 3073 3074 3074 3075
3046 3045 3045 3044 3043 3042 3041 3040 3038 3038 3038 3037 3037 3036 3036 3036 3036 3036 3036 3036 3036 3036 3036 3037 3037 3037 3037 3037 3037 3037 3037 3038 3038 3039 3039 3039 3040 3041 3041 3042 3043 3044 3045 3045 3046 3047 3047 3048 3048 3049 3050 3051 3052 3053 3053 3054 3054 3054 3055 3055 3055 3056 3055 3055 3058 3059 3060 3061 3063 3065 3066 3065 3064 3064 3066 3067 3068 3068 3069 3070 3070 3070 3070 3071 3071 3072 3072 3073
3044 3043 3043 3042 3042 3040 3039 3038 3036 3036 3035 3035 3034 3034 3034 3034 3034 3034 3034 3034 3034 3034 3034 3034 3034 3035 3035 3035 3035 3035 3036 3036 3036 3037 3037 3037 3038 3039 3039 3040 3041 3042 3043 3043 3044 3045 3045 3046 3046 3047 3048 3049 3050 3051 3052 3053 3052 3052 3053 3053 3053 3053 3055 3055 3056 3057 3058 3059 3060 3061 3063 3063 3061 3062 3063 3064 3065 3065 3066 3066 3067 3067 3068 3068 3069 3070 3070 3070
3042 3041 3041 3040 3039 3038 3037 3036 3035 3034 3033 3033 3032 3032 3032 3032 3032 3032 3032 3032 3032 3032 3032 3032 3032 3033 3032 3033 3033 3033 3034 3034 3034 3035 3035 3035 3036 3036 3037 3038 3039 3040 3040 3041 3042 3042 3043 3043 3044 3045 3046 3047 3048 3049 3051 3050 3050 3049 3050 3051 3051 3052 3054 3054 3053 3054 3056 3057 3057 3059 3061 3060 3059 3060 3060 3061 3062 3062 3063 3063 3064 3064 3065 3065 3066 3066 3067 3067
3039 3038 3038 3037 3037 3036 3035 3034 3033 3032 3031 3031 3030 3030 3030 3030 3030 3030 3030 3030 3030 3030 3030 3030 3030 3031 3031 3031 3031 3031 3031 3032 3032 3033 3033 3034 3034 3034 3035 3036 3036 3037 3038 3039 3040 3040 3041 3041 3042 3043 3043 3044 3045 3046 3046 3046 3046 3048 3048 3049 3050 3050 3051 3052 3052 3053 3054 3055 3055 3057 3059 3058 3058 3059 3059 3059 3059 3060 3060 3061 3061 3061 3062 3062 3063 3063 3064 3064
3036 3035 3034 3034 3033 3033 3032 3032 3031 3029 3029 3029 3028 3028 3028 3028 3028 3028 3028 3028 3028 3028 3028 3028 3028 3029 3029 3029 3029 3030 3030 3030 3030 3031 3031 3032 3032 3033 3033 3034 3034 3035 3036 3037 3038 3038 3039 3039 3040 3040 3039 3040 3041 3043 3044 3044 3045 3046 3047 3048 3048 3048 3049 3049 3051 3052 3053 3054 3054 3055 3056 3056 3056 3056 3057 3058 3058 3058 3058 3058 3059 3059 3059 3060 3060 3060 3061 3062
3033 3031 3030 3030 3029 3029 3029 3029 3028 3027 3026 3026 3027 3026 3026 3026 3026 3026 3026 3026 3026 3026 3026 3027 3027 3027 3028 3028 3028 3028 3028 3029 3029 3029 3030 3030 3031 3031 3032 3032 3032 3033 3034 3035 3035 3036 3037 3037 3036 3036 3037 3039 3041 3043 3043 3043 3043 3044 3045 3045 3046 3047 3047 3047 3050 3051 3051 3053 3053 3054 3055 3055 3054 3053 3054 3055 3055 3056 3056 3057 3057 3057 3057 3057 3058 3058 3058 3059
3029 3028 3027 3026 3026 3026 3026 3026 3026 3025 3024 3024 3024 3024 3024 3024 3024 3024 3024 3024 3024 3024 3025 3025 3025 3026 3026 3026 3026 3027 3027 3027 3027 3028 3028 3029 3029 3030 3030 3031 3031 3032 3032 3033 3033 3034 3034 3033 3033 3034 3037 3038 3040 3041 3041 3041 3041 3042 3043 3043 3043 3044 3044 3045 3047 3048 3049 3051 3051 3052 3053 3053 3051 3050 3051 3052 3052 3053 3053 3054 3054 3055 3055 3055 3055 3055 3055 3056
3027 3025 3025 3024 3023 3023 3023 3023 3023 3023 3022 3022 3022 3022 3022 3022 3023 3022 3022 3023 3023 3023 3023 3023 3024 3024 3024 3024 3025 3025 3025 3025 3026 3026 3026 3027 3027 3028 3028 3029 3030 3030 3030 3031 3031 3032 3032 3031 3031 3034 3035 3036 3037 3038 3038 3039 3039 3040 3041 3041 3041 3041 3042 3044 3045 3046 3047 3049 3049 3049 3050 3050 3048 3048 3048 3049 3049 3050 3050 3050 3051 3051 3052 3052 3052 3053 3053 3053
3026 3024 3024 3023 3022 3021 3021 3021 3020 3020 3020 3020 3020 3020 3020 3021 3021 3021 3021 3021 3021 3021 3022 3022 3022 3022 3022 3023 3023 3023 3023 3023 3024 3024 3024 3025 3025 3025 3026 3027 3028 3028 3029 3029 3030 3030 3030 3029 3030 3032 3032 3033 3034 3035 3036 3036 3037 3037 3038 3038 3038 3038 3040 3043 3043 3044 3045 3046 3046 3047 3047 3046 3045 3045 3045 3046 3046 3046 3046 3047 3047 3048 3049 3049 3050 3050 3050 3051
3024 3023 3023 3022 3021 3020 3020 3019 3019 3018 3018 3018 3018 3019 3019 3019 3019 3019 3019 3020 3020 3020 3021 3021 3021 3021 3021 3022 3022 3022 3022 3022 3022 3022 3022 3022 3023 3023 3024 3025 3026 3026 3027 3027 3028 3029 3028 3028 3028 3029 3030 3031 3032 3032 3033 3034 3034 3034 3034 3035 3035 3036 3038 3041 3042 3042 3043 3043 3043 3045 3045 3042 3041 3041 3042 3042 3043 3043 3043 3043 3044 3044 3046 3047 3047 3048 3048 3049
3023 3022 3022 3021 3020 3019 3018 3018 3018 3017 3017 3017 3017 3017 3017 3018 3018 3018 3018 3019 3019 3020 3020 3020 3020 3021 3021 3021 3021 3021 3021 3021 3021 3021 3021 3021 3021 3021 3022 3023 3023 3024 3025 3025 3026 3026 3026 3026 3027 3028 3029 3030 3030 3030 3031 3032 3032 3032 3031 3031 3033 3034 3036 3038 3039 3041 3042 3040 3039 3043 3043 3037 3035 3037 3037 3038 3039 3039 3040 3040 3041 3042 3043 3044 3045 3045 3046 3046
3022 3022 3021 3021 3020 3019 3018 3017 3017 3017 3017 3017 3017 3017 3017 3017 3017 3017 3017 3018 3019 3020 3020 3020 3020 3020 3020 3020 3020 3020 3020 3020 3020 3020 3019 3019 3020 3020 3020 3021 3021 3022 3023 3023 3024 3023 3023 3024 3025 3026 3027 3028 3028 3028 3029 3030 3031 3031 3028 3028 3031 3032 3033 3035 3037 3039 3040 3037 3036 3040 3040 3033 3031 3033 3033 3034 3035 3036 3037 3037 3038 3039 3040 3041 3042 3042 3043 3044
3022 3021 3020 3020 3019 3018 3017 3017 3017 3017 3016 3016 3016 3016 3016 3016 3016 3016 3016 3017 3019 3019 3019 3019 3019 3020 3019 3019 3019 3019 3019 3019 3019 3019 3019 3019 3019 3019 3019 3020 3020 3021 3021 3022 3023 3022 3022 3023 3023 3024 3025 3026 3026 3026 3028 3029 3030 3028 3026 3027 3030 3030 3031 3032 3034 3036 3036 3036 3035 3036 3037 3033 3029 3028 3029 3030 3031 3032 3033 3034 3035 3036 3037 3038 3039 3039 3040 3041
3021 3021 3020 3019 3018 3018 3017 3017 3016 3016 3016 3016 3016 3016 3015 3015 3015 3015 3015 3017 3018 3019 3019 3019 3019 3019 3019 3019 3019 3019 3019 3019 3019 3018 3018 3018 3018 3018 3018 3018 3019 3019 3019 3021 3022 3021 3021 3022 3022 3023 3024 3024 3024 3025 3026 3027 3027 3025 3025 3027 3028 3028 3029 3030 3032 3033 3033 3035 3033 3031 3034 3033 3026 3024 3027 3028 3028 3028 3029 3030 3031 3032 3033 3034 3036 3037 3037 3038
3020 3020 3019 3019 3018 3017 3017 3016 3016 3016 3015 3015 3015 3015 3015 3015 3015 3014 3014 3016 3018 3018 3018 3018 3018 3018 3018 3018 3018 3018 3018 3018 3018 3018 3018 3018 3018 3018 3018 3018 3018 3018 3019 3019 3020 3020 3020 3021 3021 3022 3022 3022 3022 3023 3024 3025 3024 3024 3025 3026 3026 3027 3027 3029 3030 3030 3033 3033 3028 3026 3030 3030 3023 3020 3023 3024 3024 3025 3025 3027 3029 3029 3031 3032 3033 3034 3034 3035
3019 3019 3019 3018 3018 3017 3016 3016 3015 3015 3015 3014 3014 3014 3014 3014 3014 3014 3014 3016 3017 3017 3017 3018 3018 3018 3018 3018 3018 3018 3018 3018 3018 3018 3017 3017 3017 3017 3017 3017 3018 3018 3018 3018 3019 3019 3019 3020 3020 3020 3021 3021 3021 3021 3021 3022 3022 3022 3024 3024 3025 3026 3026 3027 3027 3029 3032 3028 3021 3021 3026 3028 3023 3018 3018 3020 3020 3021 3022 3024 3026 3027 3028 3029 3030 3031 3031 3032
3019 3018 3018 3018 3017 3017 3016 3015 3015 3014 3014 3014 3013 3013 3013 3013 3013 3013 3014 3015 3016 3016 3017 3017 3017 3017 3017 3018 3018 3018 3017 3017 3017 3017 3017 3017 3017 3017 3017 3017 3017 3017 3018 3018 3018 3018 3018 3019 3018 3018 3019 3019 3020 3020 3020 3020 3021 3021 3022 3023 3024 3025 3025 3026 3027 3028 3029 3022 3016 3018 3023 3027 3023 3015 3014 3017 3017 3019 3020 3021 3022 3023 3024 3026 3026 3027 3027 3028
3018 3018 3017 3017 3016 3016 3015 3014 3014 3014 3013 3013 3012 3012 3012 3012 3012 3012 3014 3015 3015 3016 3016 3016 3017 3017 3017 3017 3017 3017 3017 3016 3016 3016 3016 3016 3016 3016 3016 3016 3016 3016 3017 3017 3017 3017 3017 3017 3017 3017 3017 3018 3018 3019 3019 3019 3020 3020 3021 3022 3023 3023 3024 3024 3023 3024 3022 3016 3014 3016 3020 3022 3018 3012 3013 3014 3015 3016 3017 3017 3018 3019 3021 3022 3023 3024 3024 3025
3018 3017 3017 3016 3015 3014 3014 3013 3013 3013 3012 3012 3011 3011 3011 3011 3011 3012 3013 3014 3014 3015 3015 3016 3016 3016 3016 3016 3016 3016 3016 3016 3015 3015 3015 3015 3015 3015 3015 3015 3016 3016 3016 3016 3016 3016 3016 3015 3015 3016 3016 3017 3017 3018 3018 3018 3018 3019 3020 3021 3020 3019 3022 3020 3018 3019 3017 3013 3014 3016 3019 3018 3013 3010 3010 3010 3011 3013 3013 3014 3015 3016 3017 3018 3019 3020 3021 3021
3017 3016 3015 3015 3014 3013 3013 3012 3012 3012 3011 3011 3010 3010 3010 3010 3011 3012 3012 3013 3013 3014 3014 3015 3015 3015 3015 3015 3015 3015 3015 3015 3014 3014 3014 3014 3014 3014 3014 3015 3015 3015 3015 3015 3016 3016 3015 3014 3014 3015 3015 3015 3015 3016 3017 3016 3017 3017 3018 3019 3018 3016 3017 3015 3012 3013 3012 3011 3013 3016 3016 3012 3007 3006 3006 3007 3009 3010 3011 3011 3012 3013 3014 3015 3015 3016 3017 3018
3016 3015 3014 3013 3013 3012 3012 3011 3011 3011 3010 3010 3009 3009 3009 3009 3010 3011 3011 3012 3012 3013 3013 3014 3014 3014 3014 3013 3013 3014 3014 3014 3014 3014 3013 3013 3014 3014 3014 3014 3014 3014 3015 3015 3015 3015 3014 3014 3014 3014 3014 3014 3014 3014 3015 3015 3016 3016 3016 3017 3017 3015 3014 3013 3010 3010 3010 3011 3012 3012 3010 3006 3004 3004 3004 3005 3006 3007 3008 3008 3009 3010 3010 3011 3012 3012 3013 3014
3014 3014 3013 3012 3012 3011 3011 3010 3010 3010 3009 3009 3008 3008 3008 3009 3009 3010 3010 3011 3011 3012 3012 3012 3012 3012 3012 3012 3012 3013 3013 3013 3013 3013 3013 3013 3013 3013 3013 3013 3013 3014 3014 3014 3014 3014 3014 3013 3013 3013 3013 3013 3013 3013 3014 3015 3015 3015 3015 3015 3014 3013 3014 3013 3011 3011 3012 3011 3007 3005 3004 3003 3003 3003 3002 3002 3003 3004 3005 3005 3006 3007 3008 3009 3010 3010 3011 3011
3013 3012 3012 3011 3011 3010 3010 3009 3009 3008 3008 3008 3007 3007 3007 3008 3008 3009 3009 3010 3010 3011 3011 3011 3011 3011 3011 3011 3012 3012 3012 3012 3012 3012 3012 3012 3012 3012 3012 3012 3013 3013 3013 3014 3014 3014 3014 3013 3012 3012 3012 3012 3012 3012 3013 3013 3013 3013 3013 3013 3012 3012 3013 3013 3012 3011 3011 3009 3002 2999 3000 3000 3001 3000 2999 3000 3001 3002 3003 3003 3004 3005 3005 3006 3007 3008 3009 3009
3012 3011 3011 3010 3010 3009 3009 3008 3008 3007 3007 3007 3007 3007 3007 3007 3008 3008 3008 3009 3009 3009 3009 3010 3010 3010 3010 3011 3011 3011 3011 3011 3011 3011 3011 3011 3012 3012 3012 3012 3012 3012 3013 3013 3013 3013 3013 3012 3011 3010 3011 3011 3011 3012 3011 3011 3011 3012 3011 3011 3012 3012 3011 3011 3012 3010 3007 3004 2999 2996 2997 2998 2998 2997 2996 2997 2998 2999 3000 3000 3001 3002 3003 3004 3004 3005 3006 3007
3011 3011 3010 3009 3009 3008 3007 3007 3006 3006 3006 3006 3006 3006 3006 3006 3006 3007 3007 3007 3007 3008 3008 3008 3009 3009 3009 3009 3010 3010 3010 3010 3010 3010 3010 3010 3011 3011 3011 3011 3011 3011 3012 3012 3012 3012 3013 3013 3010 3009 3010 3010 3010 3010 3010 3009 3010 3010 3010 3010 3011 3011 3010 3009 3008 3006 3004 3001 2997 2994 2994 2994 2994 2993 2994 2995 2995 2996 2997 2997 2999 3000 3000 3001 3002 3003 3004 3004
3011 3010 3009 3008 3008 3007 3006 3006 3006 3005 3005 3005 3005 3005 3005 3005 3005 3006 3006 3006 3006 3007 3007 3007 3007 3008 3008 3008 3008 3008 3008 3008 3008 3008 3009 3009 3009 3010 3010 3010 3010 3010 3011 3011 3011 3011 3012 3012 3010 3008 3009 3010 3009 3009 3008 3008 3009 3009 3009 3009 3009 3009 3009 3008 3005 3004 3004 3001 2998 2994 2991 2991 2992 2992 2993 2994 2993 2994 2995 2996 2997 2998 2998 2999 3000 3000 3001 3002
3010 3009 3008 3007 3007 3006 3005 3005 3005 3005 3004 3004 3004 3004 3004 3004 3004 3004 3005 3005 3005 3005 3005 3006 3006 3006 3006 3006 3006 3006 3006 3007 3007 3007 3007 3008 3008 3009 3009 3009 3009 3009 3010 3010 3010 3011 3011 3010 3008 3007 3008 3009 3008 3008 3007 3007 3007 3008 3008 3008 3008 3008 3009 3008 3004 3002 3003 3002 2999 2995 2991 2990 2992 2992 2992 2992 2991 2993 2994 2995 2996 2996 2997 2997 2998 2998 2998 2999
3009 3008 3007 3006 3006 3005 3005 3004 3004 3004 3003 3003 3003 3003 3003 3003 3003 3003 3004 3004 3004 3004 3004 3004 3004 3005 3005 3005 3005 3005 3005 3005 3006 3006 3006 3007 3007 3008 3008 3008 3008 3008 3008 3009 3009 3009 3009 3008 3007 3007 3007 3007 3007 3006 3006 3006 3006 3007 3007 3007 3007 3008 3008 3009 3006 3003 3003 3001 2999 2998 2994 2991 2991 2992 2991 2991 2991 2993 2994 2994 2995 2995 2995 2996 2996 2996 2996 2996
3008 3007 3006 3005 3005 3004 3004 3004 3003 3003 3002 3002 3002 3002 3002 3002 3002 3002 3003 3003 3003 3003 3003 3003 3004 3004 3004 3004 3004 3004 3004 3004 3005 3005 3006 3006 3006 3006 3006 3006 3007 3007 3007 3007 3008 3008 3007 3007 3006 3006 3005 3005 3005 3005 3005 3005 3005 3006 3006 3005 3006 3006 3007 3008 3006 3005 3004 3001 2999 2999 2994 2991 2990 2991 2991 2991 2991 2992 2993 2993 2994 2994 2994 2994 2994 2994 2994 2995
3007 3006 3005 3004 3004 3003 3003 3003 3002 3002 3002 3001 3001 3001 3001 3002 3002 3002 3002 3002 3002 3002 3002 3002 3003 3003 3003 3003 3003 3003 3003 3004 3004 3004 3005 3005 3005 3005 3005 3005 3005 3005 3006 3006 3006 3006 3007 3006 3006 3005 3004 3003 3003 3003 3003 3004 3004 3005 3005 3005 3005 3005 3006 3006 3005 3006 3005 3000 2999 2998 2992 2989 2990 2991 2990 2990 2990 2991 2991 2992 2992 2993 2993 2993 2993 2993 2993 2993
3006 3005 3004 3004 3003 3003 3003 3002 3002 3001 3001 3001 3001 3001 3001 3001 3001 3001 3001 3001 3001 3001 3001 3002 3002 3002 3002 3002 3002 3002 3002 3003 3003 3003 3004 3004 3004 3004 3004 3004 3004 3004 3004 3004 3004 3004 3005 3005 3005 3005 3005 3003 3002 3003 3003 3003 3003 3004 3004 3004 3004 3004 3004 3004 3005 3006 3003 2998 2996 2996 2992 2990 2991 2990 2990 2990 2990 2990 2990 2990 2991 2991 2991 2991 2991 2991 2991 2991
3005 3004 3004 3003 3003 3002 3002 3002 3001 3001 3001 3000 3000 3000 3000 3000 3000 3000 3000 3000 3000 3000 3001 3001 3001 3001 3001 3001 3001 3001 3001 3002 3002 3002 3003 3003 3003 3003 3003 3003 3003 3002 3002 3002 3002 3002 3003 3003 3003 3004 3004 3003 3002 3002 3002 3001 3001 3002 3002 3002 3002 3002 3002 3003 3003 3003 3000 2997 2994 2993 2992 2991 2990 2990 2990 2990 2990 2989 2989 2989 2989 2989 2989 2989 2989 2989 2989 2989
3004 3003 3003 3002 3002 3002 3001 3001 3001 3000 3000 3000 3000 3000 3000 3000 3000 3000 3000 3000 3000 3000 3000 3000 3000 3000 3000 3001 3001 3001 3001 3001 3001 3002 3002 3002 3002 3002 3002 3002 3002 3001 3001 3000 3001 3001 3001 3001 3001 3001 3001 3001 3000 3000 3000 2999 2999 2999 2999 2999 3000 3000 3000 3000 2999 2998 2998 2997 2991 2989 2990 2991 2990 2989 2989 2988 2989 2988 2988 2988 2988 2987 2987 2987 2986 2986 2986 2986
3003 3003 3002 3002 3001 3001 3001 3000 3000 3000 3000 2999 2999 2999 2999 2999 2999 2999 2999 2999 2999 2999 2999 2999 2999 3000 3000 3000 3000 3000 3000 3000 3001 3001 3001 3001 3001 3001 3000 3000 3000 3000 2999 2999 2999 2999 2999 2999 2999 2999 2999 2999 2998 2998 2997 2997 2996 2996 2996 2996 2996 2997 2996 2995 2994 2994 2995 2993 2988 2987 2988 2988 2989 2988 2987 2987 2987 2987 2987 2987 2986 2986 2985 2984 2984 2983 2983 2982
3003 3002 3002 3001 3001 3000 3000 3000 3000 2999 2999 2999 2999 2999 2999 2998 2998 2998 2998 2998 2999 2999 2999 2999 2999 2999 2999 2999 2999 2999 2999 2999 3000 3000 3000 3000 3000 3000 2999 2999 2999 2999 2998 2998 2998 2998 2998 2998 2997 2997 2997 2997 2997 2996 2995 2995 2994 2993 2993 2993 2993 2992 2992 2991 2990 2990 2991 2988 2985 2985 2985 2984 2985 2986 2984 2984 2984 2984 2984 2984 2983 2983 2982 2981 2980 2979 2979 2979
3002 3001 3001 3000 3000 3000 3000 2999 2999 2999 2999 2999 2998 2998 2998 2998 2998 2998 2998 2998 2998 2998 2999 2999 2999 2999 2999 2999 2999 2999 2998 2999 2998 2998 2999 2999 2998 2998 2998 2998 2998 2997 2997 2997 2996 2996 2997 2997 2996 2995 2995 2995 2995 2994 2993 2992 2991 2989 2989 2988 2988 2988 2987 2987 2986 2986 2986 2984 2982 2983 2981 2979 2980 2981 2981 2981 2980 2980 2980 2979 2979 2978 2978 2977 2977 2976 2976 2975
3001 3000 3000 3000 2999 2999 2999 2999 2998 2998 2998 2998 2998 2997 2997 2997 2997 2998 2998 2998 2998 2998 2998 2998 2998 2998 2998 2998 2998 2998 2998 2998 2997 2997 2997 2997 2997 2997 2997 2997 2996 2996 2996 2996 2995 2995 2995 2995 2994 2994 2994 2992 2992 2992 2991 2990 2988 2986 2984 2983 2983 2983 2982 2982 2981 2981 2981 2980 2979 2979 2977 2975 2976 2977 2977 2977 2976 2976 2976 2975 2975 2974 2974 2973 2972 2972 2972 2971
3000 3000 2999 2999 2999 2999 2998 2998 2998 2998 2998 2998 2997 2997 2997 2997 2997 2997 2997 2997 2997 2997 2997 2997 2997 2997 2997 2997 2997 2997 2997 2997 2996 2996 2996 2996 2995 2995 2995 2995 2995 2995 2995 2995 2994 2994 2994 2993 2993 2993 2992 2990 2990 2989 2988 2988 2986 2982 2980 2980 2980 2980 2979 2978 2978 2978 2977 2977 2976 2975 2973 2973 2973 2973 2973 2973 2972 2972 2972 2971 2971 2971 2970 2969 2968 2967 2967 2967